OEPA

Details ICAO OEPA (AQI)
Name QAISUMAH
Region Saudi Arabia
Timezone Asia/Riyadh (UTC+3.0)
Plans Departing 8
Arriving 11
Stats Elevation 1,174 ft / 358 m (AMSL)
Location 28.335234° 46.124936°
Runways 1
Magnetic Variation 3.639° E
Sunrise 2018-05-27 02:01:28 UTC / 2018-05-27 05:01:28 Local
Sunset 2018-05-27 15:46:41 UTC / 2018-05-27 18:46:41 Local
Advertisement - Login to hide

Runways

ID Width Length Bearing (true) Bearing (mag) Surface Threshold Offset Overrun Length
16 148 ft / 45 m 9,858 ft / 3,005 m 158.31° 154.67° Asphalt 0 ft / 0 m 197 ft / 60 m
34 148 ft / 45 m 9,858 ft / 3,005 m 338.31° 334.67° Asphalt 0 ft / 0 m 197 ft / 60 m

Map

Weather


0- 5 10 15 20 25 30 35+ Temperature / ° C

Clouds and Precipitation
Forecast for 2018-05-27 12:00 UTC. Updated 5 hours ago

Ground ~20,000 ft ~40,000 ft Winds

METAR

OEPA 271500Z 00000KT CAVOK 40/11 Q1008 NOSIG

TAF

Not found

Frequencies

Unicom 122.80 MHz CTAF
Warning: Do not use this data for real-world aviation or navigation. No guarantee of current accuracy is given.